Wetterdaten: Donnerstag, 30.07.2015
Datum Zeit Auen-Temp. Temp gefhlt Luftfeuchte Luftdruck Regen Wind Richtung Richtung Taupunkt Windben
30.07.2015 00:00 10,0 C 9,7 C 86 % 1010,4 hPa 0,0 mm 3,4 km/h (1 Bft) SW 225 7,8 C 8,8 km/h (2 Bft)
30.07.2015 00:05 10,0 C 9,7 C 86 % 1010,4 hPa 0,0 mm 4,4 km/h (1 Bft) S-SW 202 7,8 C 3,9 km/h (1 Bft)
30.07.2015 00:10 9,8 C 9,6 C 86 % 1010,4 hPa 0,0 mm 3,6 km/h (1 Bft) S-SO 157 7,6 C 0,0 km/h (0 Bft)
30.07.2015 00:15 9,8 C 9,6 C 86 % 1010,4 hPa 0,0 mm 1,3 km/h (1 Bft) S-SO 157 7,6 C 0,0 km/h (0 Bft)
30.07.2015 00:20 9,6 C 9,4 C 86 % 1010,4 hPa 0,0 mm 0,8 km/h (0 Bft) O-SO 112 7,4 C 7,5 km/h (2 Bft)
30.07.2015 00:25 9,6 C 9,4 C 86 % 1010,4 hPa 0,0 mm 0,5 km/h (0 Bft) S-SO 157 7,4 C 0,0 km/h (0 Bft)
30.07.2015 00:30 9,5 C 9,3 C 87 % 1010,6 hPa 0,0 mm 0,3 km/h (0 Bft) S-SW 202 7,4 C 4,1 km/h (1 Bft)
30.07.2015 00:35 9,5 C 9,3 C 87 % 1010,6 hPa 0,0 mm 0,5 km/h (0 Bft) O-SO 112 7,4 C 3,1 km/h (1 Bft)
30.07.2015 00:40 9,4 C 9,2 C 87 % 1010,6 hPa 0,0 mm 0,8 km/h (0 Bft) SW 225 7,3 C 8,3 km/h (2 Bft)
30.07.2015 00:45 9,5 C 9,3 C 87 % 1010,6 hPa 0,0 mm 1,8 km/h (1 Bft) S 180 7,4 C 7,3 km/h (2 Bft)
30.07.2015 00:50 9,4 C 9,2 C 87 % 1010,6 hPa 0,0 mm 2,3 km/h (1 Bft) O-NO 67 7,3 C 0,0 km/h (0 Bft)
30.07.2015 00:55 9,4 C 9,2 C 87 % 1010,6 hPa 0,0 mm 2,1 km/h (1 Bft) O-SO 112 7,3 C 0,0 km/h (0 Bft)
30.07.2015 01:00 9,3 C 9,1 C 87 % 1010,6 hPa 0,0 mm 1,0 km/h (0 Bft) O-SO 112 7,2 C 9,3 km/h (2 Bft)
30.07.2015 01:05 9,2 C 9,0 C 87 % 1010,6 hPa 0,0 mm 0,8 km/h (0 Bft) W-SW 247 7,2 C 0,0 km/h (0 Bft)
30.07.2015 01:10 9,2 C 9,0 C 87 % 1010,7 hPa 0,0 mm 1,0 km/h (0 Bft) O-SO 112 7,2 C 0,0 km/h (0 Bft)
30.07.2015 01:15 9,1 C 8,9 C 87 % 1010,7 hPa 0,0 mm 0,8 km/h (0 Bft) SO 135 7,1 C 0,0 km/h (0 Bft)
30.07.2015 01:20 9,2 C 9,0 C 87 % 1010,7 hPa 0,0 mm 0,8 km/h (0 Bft) S-SO 157 7,2 C 0,0 km/h (0 Bft)
30.07.2015 01:25 9,1 C 8,9 C 87 % 1010,7 hPa 0,0 mm 0,8 km/h (0 Bft) S 180 7,1 C 0,0 km/h (0 Bft)
30.07.2015 01:30 9,0 C 8,8 C 87 % 1010,4 hPa 0,0 mm 0,8 km/h (0 Bft) O-NO 67 7,0 C 0,0 km/h (0 Bft)
30.07.2015 01:35 8,9 C 8,7 C 88 % 1010,4 hPa 0,0 mm 0,8 km/h (0 Bft) O-NO 67 7,0 C 0,0 km/h (0 Bft)
30.07.2015 01:40 8,7 C 8,5 C 88 % 1010,4 hPa 0,0 mm 0,0 km/h (0 Bft) NW 315 6,8 C 0,0 km/h (0 Bft)
30.07.2015 01:45 8,8 C 8,6 C 88 % 1010,4 hPa 0,0 mm 0,0 km/h (0 Bft) O-SO 112 6,9 C 0,0 km/h (0 Bft)
30.07.2015 01:50 8,9 C 8,7 C 88 % 1010,4 hPa 0,0 mm 0,3 km/h (0 Bft) S-SO 157 7,0 C 0,0 km/h (0 Bft)
30.07.2015 01:55 9,0 C 8,8 C 88 % 1010,4 hPa 0,0 mm 0,3 km/h (0 Bft) S-SO 157 7,1 C 0,0 km/h (0 Bft)
30.07.2015 02:00 9,0 C 8,8 C 88 % 1010,4 hPa 0,0 mm 0,0 km/h (0 Bft) W-SW 247 7,1 C 0,0 km/h (0 Bft)
30.07.2015 02:05 9,0 C 8,9 C 86 % 1010,4 hPa 0,0 mm 0,0 km/h (0 Bft) O-NO 67 6,8 C 0,0 km/h (0 Bft)
30.07.2015 02:10 9,0 C 8,9 C 86 % 1010,4 hPa 0,0 mm 0,3 km/h (0 Bft) O-SO 112 6,8 C 0,0 km/h (0 Bft)
30.07.2015 02:15 9,1 C 9,0 C 86 % 1010,4 hPa 0,0 mm 0,3 km/h (0 Bft) S 180 6,9 C 0,0 km/h (0 Bft)
30.07.2015 02:20 9,1 C 8,9 C 88 % 1010,4 hPa 0,0 mm 0,0 km/h (0 Bft) O-SO 112 7,2 C 0,0 km/h (0 Bft)
30.07.2015 02:25 9,1 C 8,9 C 88 % 1010,4 hPa 0,0 mm 0,3 km/h (0 Bft) SO 135 7,2 C 0,0 km/h (0 Bft)
30.07.2015 02:30 9,0 C 8,9 C 86 % 1010,3 hPa 0,0 mm 0,3 km/h (0 Bft) SO 135 6,8 C 0,0 km/h (0 Bft)
30.07.2015 02:35 9,0 C 8,9 C 86 % 1010,3 hPa 0,0 mm 0,0 km/h (0 Bft) SO 135 6,8 C 0,0 km/h (0 Bft)
30.07.2015 02:40 9,0 C 8,8 C 88 % 1010,3 hPa 0,0 mm 0,0 km/h (0 Bft) SO 135 7,1 C 0,0 km/h (0 Bft)
30.07.2015 02:45 8,9 C 8,7 C 88 % 1010,3 hPa 0,0 mm 0,0 km/h (0 Bft) SO 135 7,0 C 0,0 km/h (0 Bft)
30.07.2015 02:50 8,8 C 8,6 C 88 % 1010,4 hPa 0,0 mm 0,5 km/h (0 Bft) W 270 6,9 C 4,9 km/h (1 Bft)
30.07.2015 02:55 9,0 C 8,8 C 88 % 1010,4 hPa 0,0 mm 1,8 km/h (1 Bft) SW 225 7,1 C 3,1 km/h (1 Bft)
30.07.2015 03:00 9,1 C 8,8 C 88 % 1010,4 hPa 0,0 mm 3,4 km/h (1 Bft) O-SO 112 7,2 C 12,4 km/h (3 Bft)
30.07.2015 03:05 9,1 C 8,9 C 88 % 1010,4 hPa 0,0 mm 2,3 km/h (1 Bft) SO 135 7,2 C 0,0 km/h (0 Bft)
30.07.2015 03:11 8,9 C 8,7 C 88 % 1010,2 hPa 0,0 mm 0,0 km/h (0 Bft) SW 225 7,0 C 0,0 km/h (0 Bft)
30.07.2015 03:15 8,9 C 8,7 C 88 % 1010,2 hPa 0,0 mm 0,0 km/h (0 Bft) SW 225 7,0 C 0,0 km/h (0 Bft)
30.07.2015 03:20 8,9 C 8,7 C 88 % 1010,2 hPa 0,0 mm 0,3 km/h (0 Bft) S 180 7,0 C 2,6 km/h (1 Bft)
30.07.2015 03:25 8,9 C 8,7 C 88 % 1010,2 hPa 0,0 mm 0,5 km/h (0 Bft) SW 225 7,0 C 0,0 km/h (0 Bft)
30.07.2015 03:30 8,9 C 8,7 C 88 % 1010,2 hPa 0,0 mm 0,5 km/h (0 Bft) SW 225 7,0 C 0,0 km/h (0 Bft)
30.07.2015 03:35 8,9 C 8,7 C 88 % 1010,2 hPa 0,0 mm 0,0 km/h (0 Bft) O-SO 112 7,0 C 0,0 km/h (0 Bft)
30.07.2015 03:40 8,8 C 8,6 C 88 % 1010,2 hPa 0,0 mm 0,3 km/h (0 Bft) S 180 6,9 C 0,0 km/h (0 Bft)
30.07.2015 03:45 8,8 C 8,6 C 88 % 1010,2 hPa 0,0 mm 0,3 km/h (0 Bft) W-SW 247 6,9 C 0,0 km/h (0 Bft)
30.07.2015 03:50 8,9 C 8,7 C 88 % 1010,1 hPa 0,0 mm 0,3 km/h (0 Bft) S-SW 202 7,0 C 2,8 km/h (1 Bft)
30.07.2015 03:55 8,9 C 8,7 C 88 % 1010,1 hPa 0,0 mm 1,0 km/h (0 Bft) S 180 7,0 C 2,6 km/h (1 Bft)
30.07.2015 04:00 9,0 C 8,8 C 88 % 1010,1 hPa 0,0 mm 1,0 km/h (0 Bft) W-SW 247 7,1 C 3,4 km/h (1 Bft)
30.07.2015 04:05 8,9 C 8,7 C 88 % 1010,1 hPa 0,0 mm 1,6 km/h (1 Bft) S 180 7,0 C 0,0 km/h (0 Bft)
30.07.2015 04:10 8,9 C 8,7 C 88 % 1009,9 hPa 0,0 mm 2,1 km/h (1 Bft) SW 225 7,0 C 5,2 km/h (1 Bft)
30.07.2015 04:15 8,9 C 8,7 C 88 % 1009,9 hPa 0,0 mm 0,8 km/h (0 Bft) SO 135 7,0 C 0,0 km/h (0 Bft)
30.07.2015 04:20 9,0 C 8,8 C 88 % 1009,9 hPa 0,0 mm 0,8 km/h (0 Bft) S 180 7,1 C 0,0 km/h (0 Bft)
30.07.2015 04:25 9,0 C 8,8 C 88 % 1009,9 hPa 0,0 mm 0,5 km/h (0 Bft) S 180 7,1 C 0,0 km/h (0 Bft)
30.07.2015 04:30 8,9 C 8,7 C 88 % 1009,8 hPa 0,0 mm 0,0 km/h (0 Bft) W-SW 247 7,0 C 0,0 km/h (0 Bft)
30.07.2015 04:35 8,9 C 8,7 C 88 % 1009,8 hPa 0,0 mm 0,0 km/h (0 Bft) SW 225 7,0 C 0,0 km/h (0 Bft)
30.07.2015 04:40 8,8 C 8,6 C 88 % 1009,8 hPa 0,0 mm 0,0 km/h (0 Bft) W-SW 247 6,9 C 0,0 km/h (0 Bft)
30.07.2015 04:45 8,8 C 8,6 C 88 % 1009,8 hPa 0,0 mm 0,0 km/h (0 Bft) W-SW 247 6,9 C 0,0 km/h (0 Bft)
30.07.2015 04:50 8,7 C 8,5 C 88 % 1009,8 hPa 0,0 mm 0,3 km/h (0 Bft) W-SW 247 6,8 C 4,4 km/h (1 Bft)
30.07.2015 04:55 8,7 C 8,5 C 88 % 1009,8 hPa 0,0 mm 2,1 km/h (1 Bft) S 180 6,8 C 3,6 km/h (1 Bft)
30.07.2015 05:00 8,4 C 8,2 C 88 % 1009,8 hPa 0,0 mm 2,6 km/h (1 Bft) SW 225 6,5 C 0,0 km/h (0 Bft)
30.07.2015 05:05 8,3 C 8,1 C 88 % 1009,8 hPa 0,0 mm 2,8 km/h (1 Bft) SW 225 6,4 C 7,3 km/h (2 Bft)
30.07.2015 05:10 8,2 C 8,0 C 88 % 1009,8 hPa 0,0 mm 3,6 km/h (1 Bft) S-SW 202 6,3 C 13,2 km/h (3 Bft)
30.07.2015 05:15 8,2 C 8,0 C 88 % 1009,8 hPa 0,0 mm 2,8 km/h (1 Bft) SO 135 6,3 C 0,0 km/h (0 Bft)
30.07.2015 05:20 8,0 C 7,8 C 88 % 1009,8 hPa 0,0 mm 0,5 km/h (0 Bft) S 180 6,1 C 0,0 km/h (0 Bft)
30.07.2015 05:25 8,1 C 7,9 C 88 % 1009,8 hPa 0,0 mm 0,8 km/h (0 Bft) S 180 6,2 C 0,0 km/h (0 Bft)
30.07.2015 05:30 7,8 C 7,6 C 88 % 1009,7 hPa 0,0 mm 0,8 km/h (0 Bft) SW 225 5,9 C 0,0 km/h (0 Bft)
30.07.2015 05:35 7,8 C 7,6 C 88 % 1009,7 hPa 0,0 mm 0,0 km/h (0 Bft) W-SW 247 5,9 C 0,0 km/h (0 Bft)
30.07.2015 05:40 7,7 C 7,5 C 88 % 1009,7 hPa 0,0 mm 0,0 km/h (0 Bft) SW 225 5,8 C 0,0 km/h (0 Bft)
30.07.2015 05:45 7,8 C 7,6 C 88 % 1009,7 hPa 0,0 mm 0,0 km/h (0 Bft) W 270 5,9 C 0,0 km/h (0 Bft)
30.07.2015 05:50 8,0 C 7,7 C 88 % 1009,8 hPa 0,0 mm 0,0 km/h (0 Bft) W-SW 247 6,1 C 0,0 km/h (0 Bft)
30.07.2015 05:55 8,0 C 7,8 C 88 % 1009,8 hPa 0,0 mm 0,0 km/h (0 Bft) W-SW 247 6,1 C 0,0 km/h (0 Bft)
30.07.2015 06:00 8,0 C 7,8 C 88 % 1009,8 hPa 0,0 mm 0,0 km/h (0 Bft) W-SW 247 6,1 C 0,0 km/h (0 Bft)
30.07.2015 06:05 7,9 C 7,7 C 89 % 1009,8 hPa 0,0 mm 0,0 km/h (0 Bft) S 180 6,2 C 0,0 km/h (0 Bft)
30.07.2015 06:10 7,9 C 7,7 C 89 % 1009,9 hPa 0,0 mm 0,0 km/h (0 Bft) S-SW 202 6,2 C 0,0 km/h (0 Bft)
30.07.2015 06:15 8,0 C 7,8 C 89 % 1009,9 hPa 0,0 mm 0,3 km/h (0 Bft) W-SW 247 6,3 C 2,8 km/h (1 Bft)
30.07.2015 06:20 8,2 C 8,1 C 89 % 1009,9 hPa 0,0 mm 0,5 km/h (0 Bft) SO 135 6,5 C 0,0 km/h (0 Bft)
30.07.2015 06:25 8,4 C 8,2 C 89 % 1009,9 hPa 0,0 mm 0,5 km/h (0 Bft) S 180 6,7 C 0,0 km/h (0 Bft)
30.07.2015 06:30 8,5 C 8,4 C 86 % 1010,1 hPa 0,0 mm 0,0 km/h (0 Bft) S-SW 202 6,3 C 0,0 km/h (0 Bft)
30.07.2015 06:35 8,6 C 8,6 C 86 % 1010,1 hPa 0,0 mm 0,0 km/h (0 Bft) S-SO 157 6,4 C 0,0 km/h (0 Bft)
30.07.2015 06:40 8,7 C 8,7 C 86 % 1010,1 hPa 0,0 mm 0,5 km/h (0 Bft) W-SW 247 6,5 C 0,0 km/h (0 Bft)
30.07.2015 06:45 8,8 C 8,9 C 86 % 1010,1 hPa 0,0 mm 0,8 km/h (0 Bft) W-SW 247 6,6 C 0,0 km/h (0 Bft)
30.07.2015 06:50 8,9 C 9,0 C 86 % 1010,1 hPa 0,0 mm 1,0 km/h (0 Bft) W-SW 247 6,7 C 4,7 km/h (1 Bft)
30.07.2015 06:55 9,0 C 9,0 C 86 % 1010,1 hPa 0,0 mm 2,1 km/h (1 Bft) W-SW 247 6,8 C 0,0 km/h (0 Bft)
30.07.2015 07:00 9,2 C 9,3 C 86 % 1010,1 hPa 0,0 mm 1,6 km/h (1 Bft) W-SW 247 7,0 C 0,0 km/h (0 Bft)
30.07.2015 07:05 9,2 C 9,4 C 86 % 1010,1 hPa 0,0 mm 0,0 km/h (0 Bft) O 90 7,0 C 0,0 km/h (0 Bft)
30.07.2015 07:10 9,4 C 9,8 C 86 % 1010,0 hPa 0,0 mm 0,0 km/h (0 Bft) W-SW 247 7,2 C 0,0 km/h (0 Bft)
30.07.2015 07:15 9,5 C 10,1 C 86 % 1010,0 hPa 0,0 mm 0,0 km/h (0 Bft) S 180 7,3 C 0,0 km/h (0 Bft)
30.07.2015 07:20 9,6 C 10,4 C 86 % 1010,0 hPa 0,0 mm 0,0 km/h (0 Bft) SW 225 7,4 C 0,0 km/h (0 Bft)
30.07.2015 07:25 9,6 C 10,4 C 86 % 1010,0 hPa 0,0 mm 0,0 km/h (0 Bft) W 270 7,4 C 0,0 km/h (0 Bft)
30.07.2015 07:30 10,1 C 12,3 C 86 % 1010,2 hPa 0,0 mm 1,6 km/h (1 Bft) S-SO 157 7,9 C 0,0 km/h (0 Bft)
30.07.2015 07:35 10,9 C 15,3 C 86 % 1010,2 hPa 0,0 mm 1,6 km/h (1 Bft) SO 135 8,7 C 0,0 km/h (0 Bft)
30.07.2015 07:40 11,0 C 16,3 C 85 % 1010,2 hPa 0,0 mm 0,3 km/h (0 Bft) W 270 8,6 C 0,0 km/h (0 Bft)
30.07.2015 07:45 11,0 C 15,7 C 84 % 1010,2 hPa 0,0 mm 1,0 km/h (0 Bft) S-SW 202 8,4 C 0,0 km/h (0 Bft)
30.07.2015 07:50 11,0 C 15,0 C 84 % 1010,3 hPa 0,0 mm 0,8 km/h (0 Bft) O 90 8,4 C 0,0 km/h (0 Bft)
30.07.2015 07:55 10,9 C 14,4 C 84 % 1010,3 hPa 0,0 mm 0,3 km/h (0 Bft) SW 225 8,3 C 3,9 km/h (1 Bft)
30.07.2015 08:00 11,0 C 14,2 C 83 % 1010,3 hPa 0,0 mm 1,0 km/h (0 Bft) O-NO 67 8,2 C 0,0 km/h (0 Bft)
30.07.2015 08:05 11,2 C 14,4 C 83 % 1010,3 hPa 0,0 mm 1,0 km/h (0 Bft) NW 315 8,4 C 0,0 km/h (0 Bft)
30.07.2015 08:10 11,7 C 15,2 C 83 % 1010,3 hPa 0,0 mm 0,3 km/h (0 Bft) NO 45 8,9 C 0,0 km/h (0 Bft)
30.07.2015 08:15 11,9 C 15,8 C 83 % 1010,3 hPa 0,0 mm 0,3 km/h (0 Bft) W-SW 247 9,1 C 3,1 km/h (1 Bft)
30.07.2015 08:20 11,8 C 15,7 C 83 % 1010,3 hPa 0,0 mm 0,5 km/h (0 Bft) O-SO 112 9,0 C 0,0 km/h (0 Bft)
30.07.2015 08:25 11,9 C 15,5 C 83 % 1010,3 hPa 0,0 mm 0,3 km/h (0 Bft) NO 45 9,1 C 0,0 km/h (0 Bft)
30.07.2015 08:30 12,3 C 16,8 C 82 % 1010,3 hPa 0,0 mm 0,0 km/h (0 Bft) O 90 9,3 C 0,0 km/h (0 Bft)
30.07.2015 08:35 12,7 C 17,4 C 82 % 1010,3 hPa 0,0 mm 0,3 km/h (0 Bft) SW 225 9,7 C 0,0 km/h (0 Bft)
30.07.2015 08:40 13,2 C 19,4 C 80 % 1010,3 hPa 0,0 mm 0,3 km/h (0 Bft) S 180 9,8 C 2,8 km/h (1 Bft)
30.07.2015 08:45 13,3 C 20,1 C 80 % 1010,3 hPa 0,0 mm 0,5 km/h (0 Bft) SO 135 9,9 C 2,8 km/h (1 Bft)
30.07.2015 08:50 13,4 C 21,1 C 78 % 1009,6 hPa 0,0 mm 2,1 km/h (1 Bft) S-SW 202 9,6 C 7,3 km/h (2 Bft)
30.07.2015 08:55 13,3 C 21,3 C 77 % 1009,6 hPa 0,0 mm 2,8 km/h (1 Bft) W 270 9,4 C 2,6 km/h (1 Bft)
30.07.2015 09:00 13,8 C 21,5 C 75 % 1009,6 hPa 0,0 mm 1,8 km/h (1 Bft) SO 135 9,4 C 0,0 km/h (0 Bft)
30.07.2015 09:05 13,9 C 21,0 C 75 % 1009,6 hPa 0,0 mm 1,6 km/h (1 Bft) S 180 9,5 C 4,1 km/h (1 Bft)
30.07.2015 09:10 14,0 C 20,6 C 74 % 1010,3 hPa 0,0 mm 2,3 km/h (1 Bft) N-NW 337 9,4 C 3,9 km/h (1 Bft)
30.07.2015 09:12 14,2 C 20,3 C 73 % 1010,3 hPa 0,0 mm 2,3 km/h (1 Bft) W-SW 247 9,4 C 3,4 km/h (1 Bft)
30.07.2015 09:15 14,2 C 20,3 C 73 % 1010,3 hPa 0,0 mm 2,3 km/h (1 Bft) W-SW 247 9,4 C 3,4 km/h (1 Bft)
30.07.2015 09:20 14,1 C 19,3 C 72 % 1010,3 hPa 0,0 mm 1,8 km/h (1 Bft) NW 315 9,1 C 3,6 km/h (1 Bft)
30.07.2015 09:25 14,0 C 18,6 C 72 % 1010,3 hPa 0,0 mm 3,4 km/h (1 Bft) W-NW 292 9,0 C 18,6 km/h (3 Bft)
30.07.2015 09:30 13,7 C 17,1 C 71 % 1010,7 hPa 0,0 mm 6,2 km/h (2 Bft) NW 315 8,5 C 8,5 km/h (2 Bft)
30.07.2015 09:35 13,6 C 16,4 C 71 % 1010,7 hPa 0,0 mm 7,0 km/h (2 Bft) N-NW 337 8,4 C 5,7 km/h (1 Bft)
30.07.2015 09:40 13,9 C 16,8 C 71 % 1010,7 hPa 0,0 mm 6,2 km/h (2 Bft) N-NW 337 8,7 C 8,0 km/h (2 Bft)
30.07.2015 09:45 14,0 C 17,1 C 70 % 1010,7 hPa 0,0 mm 6,5 km/h (2 Bft) W 270 8,6 C 14,8 km/h (3 Bft)
30.07.2015 09:50 13,9 C 17,2 C 69 % 1010,8 hPa 0,0 mm 7,8 km/h (2 Bft) N-NW 337 8,3 C 9,8 km/h (2 Bft)
30.07.2015 09:55 14,1 C 17,2 C 69 % 1010,8 hPa 0,0 mm 8,5 km/h (2 Bft) W-SW 247 8,5 C 4,9 km/h (1 Bft)
30.07.2015 10:00 14,2 C 17,5 C 68 % 1010,8 hPa 0,0 mm 7,5 km/h (2 Bft) N-NO 22 8,4 C 7,8 km/h (2 Bft)
30.07.2015 10:05 14,5 C 17,8 C 68 % 1010,8 hPa 0,0 mm 6,7 km/h (2 Bft) NW 315 8,7 C 9,3 km/h (2 Bft)
30.07.2015 10:10 14,7 C 19,2 C 67 % 1010,8 hPa 0,0 mm 6,7 km/h (2 Bft) W-NW 292 8,6 C 12,2 km/h (2 Bft)
30.07.2015 10:15 14,7 C 18,9 C 66 % 1010,8 hPa 0,0 mm 7,0 km/h (2 Bft) NW 315 8,4 C 3,9 km/h (1 Bft)
30.07.2015 10:20 14,9 C 19,5 C 66 % 1010,8 hPa 0,0 mm 5,2 km/h (1 Bft) N-NO 22 8,6 C 5,2 km/h (1 Bft)
30.07.2015 10:25 14,9 C 19,5 C 66 % 1010,8 hPa 0,0 mm 3,6 km/h (1 Bft) NW 315 8,6 C 13,5 km/h (3 Bft)
30.07.2015 10:30 14,7 C 19,1 C 66 % 1011,1 hPa 0,0 mm 3,6 km/h (1 Bft) W-SW 247 8,4 C 0,0 km/h (0 Bft)
30.07.2015 10:35 14,9 C 19,1 C 66 % 1011,1 hPa 0,0 mm 3,4 km/h (1 Bft) N-NW 337 8,6 C 2,6 km/h (1 Bft)
30.07.2015 10:40 14,7 C 18,9 C 65 % 1011,1 hPa 0,0 mm 2,6 km/h (1 Bft) S-SW 202 8,2 C 0,0 km/h (0 Bft)
30.07.2015 10:45 14,6 C 19,2 C 65 % 1011,1 hPa 0,0 mm 2,1 km/h (1 Bft) W-SW 247 8,1 C 0,0 km/h (0 Bft)
30.07.2015 10:50 14,7 C 19,1 C 65 % 1011,2 hPa 0,0 mm 2,3 km/h (1 Bft) W 270 8,2 C 7,5 km/h (2 Bft)
30.07.2015 10:55 14,7 C 19,0 C 65 % 1011,2 hPa 0,0 mm 3,4 km/h (1 Bft) W 270 8,2 C 4,7 km/h (1 Bft)
30.07.2015 11:00 15,7 C 20,8 C 64 % 1011,2 hPa 0,0 mm 4,7 km/h (1 Bft) NW 315 8,9 C 9,8 km/h (2 Bft)
30.07.2015 11:05 15,7 C 21,0 C 64 % 1011,2 hPa 0,0 mm 4,7 km/h (1 Bft) NW 315 8,9 C 0,0 km/h (0 Bft)
30.07.2015 11:10 15,7 C 21,1 C 64 % 1010,9 hPa 0,0 mm 4,9 km/h (1 Bft) NW 315 8,9 C 7,8 km/h (2 Bft)
30.07.2015 11:15 16,1 C 21,7 C 63 % 1010,9 hPa 0,0 mm 4,4 km/h (1 Bft) S 180 9,1 C 2,8 km/h (1 Bft)
30.07.2015 11:20 15,6 C 21,6 C 63 % 1010,9 hPa 0,0 mm 3,6 km/h (1 Bft) O-NO 67 8,6 C 4,1 km/h (1 Bft)
30.07.2015 11:25 15,4 C 20,6 C 64 % 1010,9 hPa 0,0 mm 2,1 km/h (1 Bft) S-SO 157 8,6 C 4,4 km/h (1 Bft)
30.07.2015 11:30 15,3 C 20,2 C 64 % 1011,1 hPa 0,0 mm 1,8 km/h (1 Bft) SW 225 8,5 C 6,2 km/h (2 Bft)
30.07.2015 11:35 15,9 C 22,1 C 63 % 1011,1 hPa 0,0 mm 2,1 km/h (1 Bft) NW 315 8,9 C 7,3 km/h (2 Bft)
30.07.2015 11:40 16,2 C 22,8 C 62 % 1011,1 hPa 0,0 mm 3,4 km/h (1 Bft) W-NW 292 8,9 C 0,0 km/h (0 Bft)
30.07.2015 11:45 16,1 C 22,8 C 62 % 1011,1 hPa 0,0 mm 3,1 km/h (1 Bft) N-NO 22 8,8 C 0,0 km/h (0 Bft)
30.07.2015 11:50 15,5 C 21,6 C 63 % 1011,4 hPa 0,0 mm 1,8 km/h (1 Bft) N-NO 22 8,5 C 3,4 km/h (1 Bft)
30.07.2015 11:55 15,5 C 20,7 C 64 % 1011,4 hPa 0,0 mm 1,3 km/h (1 Bft) O-SO 112 8,7 C 3,6 km/h (1 Bft)
30.07.2015 12:00 15,4 C 19,8 C 64 % 1011,4 hPa 0,0 mm 2,3 km/h (1 Bft) W 270 8,6 C 7,3 km/h (2 Bft)
30.07.2015 12:05 15,4 C 19,4 C 64 % 1011,4 hPa 0,0 mm 3,9 km/h (1 Bft) N-NW 337 8,6 C 4,4 km/h (1 Bft)
30.07.2015 12:10 15,7 C 19,2 C 64 % 1011,2 hPa 0,0 mm 5,7 km/h (1 Bft) NW 315 8,9 C 8,8 km/h (2 Bft)
30.07.2015 12:15 15,7 C 19,0 C 63 % 1011,2 hPa 0,0 mm 6,5 km/h (2 Bft) NW 315 8,7 C 8,5 km/h (2 Bft)
30.07.2015 12:20 16,0 C 19,3 C 62 % 1011,2 hPa 0,0 mm 5,4 km/h (1 Bft) W-SW 247 8,7 C 5,4 km/h (1 Bft)
30.07.2015 12:25 16,1 C 19,7 C 62 % 1011,2 hPa 0,0 mm 4,1 km/h (1 Bft) S-SW 202 8,8 C 5,4 km/h (1 Bft)
30.07.2015 12:30 16,1 C 20,2 C 61 % 1011,3 hPa 0,0 mm 4,1 km/h (1 Bft) NW 315 8,6 C 7,8 km/h (2 Bft)
30.07.2015 12:35 16,2 C 20,3 C 60 % 1011,3 hPa 0,0 mm 4,4 km/h (1 Bft) W-NW 292 8,4 C 9,8 km/h (2 Bft)
30.07.2015 12:40 16,2 C 20,2 C 60 % 1011,3 hPa 0,0 mm 5,7 km/h (1 Bft) N-NW 337 8,4 C 4,7 km/h (1 Bft)
30.07.2015 12:45 16,7 C 20,9 C 60 % 1011,3 hPa 0,0 mm 5,4 km/h (1 Bft) W-SW 247 8,9 C 6,7 km/h (2 Bft)
30.07.2015 12:50 16,9 C 21,6 C 59 % 1011,2 hPa 0,0 mm 6,5 km/h (2 Bft) W 270 8,8 C 15,5 km/h (3 Bft)
30.07.2015 12:55 16,4 C 21,0 C 59 % 1011,2 hPa 0,0 mm 8,5 km/h (2 Bft) W-NW 292 8,4 C 10,1 km/h (2 Bft)
30.07.2015 13:00 16,2 C 20,0 C 60 % 1011,2 hPa 0,0 mm 7,3 km/h (2 Bft) NW 315 8,4 C 4,1 km/h (1 Bft)
30.07.2015 13:05 16,1 C 19,6 C 60 % 1011,2 hPa 0,0 mm 4,1 km/h (1 Bft) W 270 8,3 C 0,0 km/h (0 Bft)
30.07.2015 13:10 16,0 C 19,2 C 60 % 1011,2 hPa 0,0 mm 2,1 km/h (1 Bft) SW 225 8,2 C 0,0 km/h (0 Bft)
30.07.2015 13:15 15,9 C 19,2 C 61 % 1011,2 hPa 0,0 mm 1,8 km/h (1 Bft) SW 225 8,4 C 0,0 km/h (0 Bft)
30.07.2015 13:20 16,0 C 19,2 C 60 % 1011,2 hPa 0,0 mm 4,1 km/h (1 Bft) W-NW 292 8,2 C 8,8 km/h (2 Bft)
30.07.2015 13:25 16,1 C 19,0 C 61 % 1011,2 hPa 0,0 mm 5,2 km/h (1 Bft) NW 315 8,6 C 5,4 km/h (1 Bft)
30.07.2015 13:30 16,1 C 19,0 C 60 % 1011,1 hPa 0,0 mm 3,4 km/h (1 Bft) N-NW 337 8,3 C 0,0 km/h (0 Bft)
30.07.2015 13:35 16,1 C 19,0 C 60 % 1011,1 hPa 0,0 mm 1,8 km/h (1 Bft) NW 315 8,3 C 0,0 km/h (0 Bft)
30.07.2015 13:40 16,1 C 19,1 C 60 % 1011,1 hPa 0,0 mm 1,0 km/h (0 Bft) W 270 8,3 C 0,0 km/h (0 Bft)
30.07.2015 13:45 16,1 C 18,9 C 60 % 1011,1 hPa 0,0 mm 2,3 km/h (1 Bft) W-NW 292 8,3 C 7,8 km/h (2 Bft)
30.07.2015 13:50 16,0 C 18,7 C 60 % 1011,0 hPa 0,0 mm 2,8 km/h (1 Bft) W-SW 247 8,2 C 2,8 km/h (1 Bft)
30.07.2015 13:55 15,9 C 18,6 C 61 % 1011,0 hPa 0,0 mm 3,1 km/h (1 Bft) W 270 8,4 C 3,4 km/h (1 Bft)
30.07.2015 14:00 16,0 C 18,5 C 60 % 1011,0 hPa 0,0 mm 3,1 km/h (1 Bft) W-NW 292 8,2 C 4,9 km/h (1 Bft)
30.07.2015 14:05 16,1 C 18,8 C 60 % 1011,0 hPa 0,0 mm 3,1 km/h (1 Bft) W-SW 247 8,3 C 6,0 km/h (2 Bft)
30.07.2015 14:10 16,0 C 18,7 C 60 % 1010,8 hPa 0,0 mm 4,7 km/h (1 Bft) W-NW 292 8,2 C 7,8 km/h (2 Bft)
30.07.2015 14:15 15,9 C 18,2 C 62 % 1010,8 hPa 0,0 mm 5,4 km/h (1 Bft) W-SW 247 8,6 C 6,2 km/h (2 Bft)
30.07.2015 14:20 15,6 C 17,6 C 62 % 1010,8 hPa 0,0 mm 3,9 km/h (1 Bft) SW 225 8,3 C 4,7 km/h (1 Bft)
30.07.2015 14:25 15,4 C 17,4 C 62 % 1010,8 hPa 0,0 mm 2,6 km/h (1 Bft) S 180 8,2 C 0,0 km/h (0 Bft)
30.07.2015 14:30 15,4 C 17,1 C 63 % 1010,9 hPa 0,0 mm 3,1 km/h (1 Bft) SW 225 8,4 C 3,4 km/h (1 Bft)
30.07.2015 14:35 15,4 C 17,2 C 63 % 1010,9 hPa 0,0 mm 2,8 km/h (1 Bft) NW 315 8,4 C 0,0 km/h (0 Bft)
30.07.2015 14:40 15,6 C 17,7 C 63 % 1010,9 hPa 0,0 mm 1,6 km/h (1 Bft) W-SW 247 8,6 C 2,8 km/h (1 Bft)
30.07.2015 14:45 15,8 C 18,2 C 62 % 1010,9 hPa 0,0 mm 2,8 km/h (1 Bft) W 270 8,5 C 6,0 km/h (2 Bft)
30.07.2015 14:50 15,9 C 18,3 C 62 % 1010,9 hPa 0,0 mm 3,1 km/h (1 Bft) W 270 8,6 C 9,3 km/h (2 Bft)
30.07.2015 14:55 15,6 C 18,1 C 62 % 1010,9 hPa 0,0 mm 3,1 km/h (1 Bft) S-SW 202 8,3 C 0,0 km/h (0 Bft)
30.07.2015 15:00 15,5 C 17,7 C 63 % 1010,9 hPa 0,0 mm 2,6 km/h (1 Bft) W 270 8,5 C 5,4 km/h (1 Bft)
30.07.2015 15:05 15,4 C 17,5 C 62 % 1010,9 hPa 0,0 mm 1,6 km/h (1 Bft) W-SW 247 8,2 C 0,0 km/h (0 Bft)
30.07.2015 15:10 15,5 C 17,7 C 62 % 1010,9 hPa 0,0 mm 1,8 km/h (1 Bft) W 270 8,3 C 3,1 km/h (1 Bft)
30.07.2015 15:13 15,9 C 18,2 C 62 % 1010,9 hPa 0,0 mm 1,3 km/h (1 Bft) N-NW 337 8,6 C 0,0 km/h (0 Bft)
30.07.2015 15:15 15,9 C 18,2 C 62 % 1010,9 hPa 0,0 mm 1,3 km/h (1 Bft) N-NW 337 8,6 C 0,0 km/h (0 Bft)
30.07.2015 15:20 16,2 C 19,3 C 61 % 1010,9 hPa 0,0 mm 2,1 km/h (1 Bft) W 270 8,7 C 4,9 km/h (1 Bft)
30.07.2015 15:25 16,4 C 19,5 C 60 % 1010,9 hPa 0,0 mm 3,9 km/h (1 Bft) N-NW 337 8,6 C 8,8 km/h (2 Bft)
30.07.2015 15:30 16,4 C 19,3 C 60 % 1010,8 hPa 0,0 mm 6,2 km/h (2 Bft) W-NW 292 8,6 C 10,6 km/h (2 Bft)
30.07.2015 15:35 16,5 C 19,3 C 60 % 1010,8 hPa 0,0 mm 7,5 km/h (2 Bft) W-NW 292 8,7 C 11,4 km/h (2 Bft)
30.07.2015 15:40 17,2 C 20,8 C 60 % 1010,8 hPa 0,0 mm 8,0 km/h (2 Bft) W-SW 247 9,4 C 7,8 km/h (2 Bft)
30.07.2015 15:45 17,2 C 21,3 C 59 % 1010,8 hPa 0,0 mm 7,0 km/h (2 Bft) W-NW 292 9,1 C 7,3 km/h (2 Bft)
30.07.2015 15:50 17,8 C 22,9 C 59 % 1010,7 hPa 0,0 mm 6,2 km/h (2 Bft) SW 225 9,7 C 3,1 km/h (1 Bft)
30.07.2015 15:55 18,2 C 24,5 C 59 % 1010,7 hPa 0,0 mm 4,7 km/h (1 Bft) NW 315 10,1 C 13,5 km/h (3 Bft)
30.07.2015 16:00 18,2 C 24,4 C 58 % 1010,7 hPa 0,0 mm 6,0 km/h (2 Bft) W 270 9,8 C 20,5 km/h (4 Bft)
30.07.2015 16:05 17,9 C 23,8 C 58 % 1010,7 hPa 0,0 mm 7,3 km/h (2 Bft) W 270 9,5 C 3,4 km/h (1 Bft)
30.07.2015 16:10 17,6 C 23,1 C 57 % 1010,9 hPa 0,0 mm 7,0 km/h (2 Bft) W-SW 247 9,0 C 14,5 km/h (3 Bft)
30.07.2015 16:15 17,2 C 21,6 C 58 % 1010,9 hPa 0,0 mm 7,3 km/h (2 Bft) W-SW 247 8,9 C 10,9 km/h (2 Bft)
30.07.2015 16:20 16,8 C 20,7 C 58 % 1010,9 hPa 0,0 mm 5,7 km/h (1 Bft) W-SW 247 8,5 C 4,4 km/h (1 Bft)
30.07.2015 16:25 16,8 C 20,4 C 59 % 1010,9 hPa 0,0 mm 6,2 km/h (2 Bft) W-NW 292 8,7 C 14,2 km/h (3 Bft)
30.07.2015 16:30 16,8 C 19,8 C 59 % 1010,7 hPa 0,0 mm 8,0 km/h (2 Bft) W-NW 292 8,7 C 8,3 km/h (2 Bft)
30.07.2015 16:35 16,8 C 19,5 C 59 % 1010,7 hPa 0,0 mm 6,7 km/h (2 Bft) S 180 8,7 C 10,4 km/h (2 Bft)
30.07.2015 16:40 16,8 C 19,4 C 60 % 1010,7 hPa 0,0 mm 3,1 km/h (1 Bft) NW 315 9,0 C 3,4 km/h (1 Bft)
30.07.2015 16:45 16,8 C 19,4 C 60 % 1010,7 hPa 0,0 mm 2,8 km/h (1 Bft) NW 315 9,0 C 2,8 km/h (1 Bft)
30.07.2015 16:50 16,8 C 19,4 C 59 % 1010,8 hPa 0,0 mm 3,9 km/h (1 Bft) W-NW 292 8,7 C 5,7 km/h (1 Bft)
30.07.2015 16:55 16,7 C 19,2 C 60 % 1010,8 hPa 0,0 mm 5,7 km/h (1 Bft) W 270 8,9 C 12,2 km/h (2 Bft)
30.07.2015 17:00 16,7 C 18,9 C 59 % 1010,8 hPa 0,0 mm 6,5 km/h (2 Bft) W-NW 292 8,6 C 5,4 km/h (1 Bft)
30.07.2015 17:05 16,7 C 18,9 C 60 % 1010,8 hPa 0,0 mm 4,7 km/h (1 Bft) S-SW 202 8,9 C 0,0 km/h (0 Bft)
30.07.2015 17:10 16,7 C 18,9 C 60 % 1010,8 hPa 0,0 mm 2,3 km/h (1 Bft) W 270 8,9 C 3,4 km/h (1 Bft)
30.07.2015 17:15 16,6 C 18,9 C 60 % 1010,8 hPa 0,0 mm 1,6 km/h (1 Bft) SW 225 8,8 C 4,4 km/h (1 Bft)
30.07.2015 17:20 16,7 C 19,0 C 60 % 1010,8 hPa 0,0 mm 1,8 km/h (1 Bft) S 180 8,9 C 0,0 km/h (0 Bft)
30.07.2015 17:25 16,9 C 19,2 C 61 % 1010,8 hPa 0,0 mm 2,8 km/h (1 Bft) S 180 9,3 C 7,0 km/h (2 Bft)
30.07.2015 17:30 16,7 C 19,2 C 60 % 1010,4 hPa 0,0 mm 4,4 km/h (1 Bft) NW 315 8,9 C 5,7 km/h (1 Bft)
30.07.2015 17:35 16,8 C 19,2 C 60 % 1010,4 hPa 0,0 mm 5,4 km/h (1 Bft) W-NW 292 9,0 C 8,0 km/h (2 Bft)
30.07.2015 17:40 16,4 C 18,5 C 60 % 1010,4 hPa 0,0 mm 6,2 km/h (2 Bft) W-SW 247 8,6 C 6,7 km/h (2 Bft)
30.07.2015 17:45 16,2 C 18,1 C 60 % 1010,4 hPa 0,0 mm 6,5 km/h (2 Bft) N-NW 337 8,4 C 3,6 km/h (1 Bft)
30.07.2015 17:50 16,5 C 18,2 C 60 % 1010,6 hPa 0,0 mm 5,4 km/h (1 Bft) W-SW 247 8,7 C 10,9 km/h (2 Bft)
30.07.2015 17:55 16,5 C 18,1 C 60 % 1010,6 hPa 0,0 mm 4,7 km/h (1 Bft) SW 225 8,7 C 4,9 km/h (1 Bft)
30.07.2015 18:00 16,5 C 18,1 C 60 % 1010,6 hPa 0,0 mm 4,4 km/h (1 Bft) W-NW 292 8,7 C 2,8 km/h (1 Bft)
30.07.2015 18:05 16,4 C 17,9 C 60 % 1010,6 hPa 0,0 mm 2,8 km/h (1 Bft) SW 225 8,6 C 0,0 km/h (0 Bft)
30.07.2015 18:10 16,5 C 18,2 C 60 % 1010,6 hPa 0,0 mm 2,3 km/h (1 Bft) W-NW 292 8,7 C 6,5 km/h (2 Bft)
30.07.2015 18:15 16,4 C 18,0 C 60 % 1010,6 hPa 0,0 mm 4,1 km/h (1 Bft) SW 225 8,6 C 4,9 km/h (1 Bft)
30.07.2015 18:20 16,3 C 17,6 C 60 % 1010,6 hPa 0,0 mm 4,4 km/h (1 Bft) W-NW 292 8,5 C 5,2 km/h (1 Bft)
30.07.2015 18:25 16,4 C 17,7 C 60 % 1010,6 hPa 0,0 mm 3,1 km/h (1 Bft) W-SW 247 8,6 C 4,4 km/h (1 Bft)
30.07.2015 18:30 16,4 C 17,8 C 60 % 1010,6 hPa 0,0 mm 2,3 km/h (1 Bft) NW 315 8,6 C 0,0 km/h (0 Bft)
30.07.2015 18:35 16,4 C 17,7 C 60 % 1010,6 hPa 0,0 mm 2,1 km/h (1 Bft) SW 225 8,6 C 0,0 km/h (0 Bft)
30.07.2015 18:40 16,3 C 17,7 C 60 % 1010,6 hPa 0,0 mm 1,3 km/h (1 Bft) SW 225 8,5 C 0,0 km/h (0 Bft)
30.07.2015 18:45 16,3 C 17,7 C 60 % 1010,6 hPa 0,0 mm 1,0 km/h (0 Bft) W-SW 247 8,5 C 0,0 km/h (0 Bft)
30.07.2015 18:50 16,3 C 17,8 C 60 % 1010,6 hPa 0,0 mm 2,6 km/h (1 Bft) W 270 8,5 C 3,4 km/h (1 Bft)
30.07.2015 18:55 16,4 C 18,0 C 60 % 1010,6 hPa 0,0 mm 3,6 km/h (1 Bft) SW 225 8,6 C 7,3 km/h (2 Bft)
30.07.2015 19:00 16,3 C 18,0 C 60 % 1010,6 hPa 0,0 mm 3,4 km/h (1 Bft) S-SO 157 8,5 C 4,4 km/h (1 Bft)
30.07.2015 19:05 16,3 C 17,9 C 60 % 1010,6 hPa 0,0 mm 2,6 km/h (1 Bft) S 180 8,5 C 4,1 km/h (1 Bft)
30.07.2015 19:10 16,2 C 17,5 C 60 % 1010,6 hPa 0,0 mm 2,3 km/h (1 Bft) S 180 8,4 C 6,2 km/h (2 Bft)
30.07.2015 19:15 16,1 C 17,4 C 60 % 1010,6 hPa 0,0 mm 2,1 km/h (1 Bft) SW 225 8,3 C 3,1 km/h (1 Bft)
30.07.2015 19:20 16,1 C 17,6 C 60 % 1010,6 hPa 0,0 mm 1,6 km/h (1 Bft) S-SW 202 8,3 C 0,0 km/h (0 Bft)
30.07.2015 19:25 16,2 C 18,2 C 60 % 1010,6 hPa 0,0 mm 0,8 km/h (0 Bft) S-SW 202 8,4 C 0,0 km/h (0 Bft)
30.07.2015 19:30 16,3 C 18,7 C 60 % 1010,8 hPa 0,0 mm 0,5 km/h (0 Bft) W 270 8,5 C 0,0 km/h (0 Bft)
30.07.2015 19:35 16,3 C 18,5 C 61 % 1010,8 hPa 0,0 mm 0,5 km/h (0 Bft) SW 225 8,8 C 0,0 km/h (0 Bft)
30.07.2015 19:40 16,2 C 18,4 C 61 % 1010,8 hPa 0,0 mm 0,8 km/h (0 Bft) S 180 8,7 C 3,9 km/h (1 Bft)
30.07.2015 19:45 16,0 C 18,0 C 60 % 1010,8 hPa 0,0 mm 1,0 km/h (0 Bft) S 180 8,2 C 0,0 km/h (0 Bft)
30.07.2015 19:50 15,7 C 17,4 C 63 % 1010,6 hPa 0,0 mm 0,5 km/h (0 Bft) SW 225 8,7 C 0,0 km/h (0 Bft)
30.07.2015 19:55 15,5 C 17,0 C 63 % 1010,6 hPa 0,0 mm 0,5 km/h (0 Bft) S-SW 202 8,5 C 2,8 km/h (1 Bft)
30.07.2015 20:00 15,4 C 16,4 C 63 % 1010,6 hPa 0,0 mm 1,3 km/h (1 Bft) S-SW 202 8,4 C 2,8 km/h (1 Bft)
30.07.2015 20:05 15,2 C 16,2 C 63 % 1010,6 hPa 0,0 mm 1,8 km/h (1 Bft) S 180 8,2 C 3,6 km/h (1 Bft)
30.07.2015 20:10 15,1 C 15,9 C 63 % 1010,8 hPa 0,0 mm 3,1 km/h (1 Bft) S 180 8,1 C 4,7 km/h (1 Bft)
30.07.2015 20:15 15,0 C 16,1 C 63 % 1010,8 hPa 0,0 mm 4,1 km/h (1 Bft) SW 225 8,0 C 6,7 km/h (2 Bft)
30.07.2015 20:20 15,1 C 16,8 C 62 % 1010,8 hPa 0,0 mm 4,7 km/h (1 Bft) S 180 7,9 C 5,7 km/h (1 Bft)
30.07.2015 20:25 15,1 C 17,0 C 61 % 1010,8 hPa 0,0 mm 4,1 km/h (1 Bft) W 270 7,6 C 7,3 km/h (2 Bft)
30.07.2015 20:30 14,9 C 17,0 C 61 % 1010,8 hPa 0,0 mm 3,6 km/h (1 Bft) S 180 7,4 C 4,1 km/h (1 Bft)
30.07.2015 20:35 14,7 C 16,5 C 62 % 1010,8 hPa 0,0 mm 4,1 km/h (1 Bft) SW 225 7,5 C 4,9 km/h (1 Bft)
30.07.2015 20:40 14,2 C 15,4 C 63 % 1010,8 hPa 0,0 mm 4,4 km/h (1 Bft) O-SO 112 7,3 C 5,4 km/h (1 Bft)
30.07.2015 20:45 13,9 C 14,9 C 63 % 1010,8 hPa 0,0 mm 3,9 km/h (1 Bft) SW 225 7,0 C 4,9 km/h (1 Bft)
30.07.2015 20:50 13,8 C 14,3 C 64 % 1010,8 hPa 0,0 mm 3,6 km/h (1 Bft) S 180 7,1 C 7,8 km/h (2 Bft)
30.07.2015 20:55 13,6 C 13,9 C 65 % 1010,8 hPa 0,0 mm 4,1 km/h (1 Bft) SW 225 7,1 C 5,2 km/h (1 Bft)
30.07.2015 21:00 13,3 C 13,6 C 66 % 1010,8 hPa 0,0 mm 4,7 km/h (1 Bft) S 180 7,1 C 4,9 km/h (1 Bft)
30.07.2015 21:05 13,2 C 13,4 C 66 % 1010,8 hPa 0,0 mm 4,9 km/h (1 Bft) SW 225 7,0 C 9,1 km/h (2 Bft)
30.07.2015 21:10 13,0 C 13,1 C 67 % 1011,1 hPa 0,0 mm 5,4 km/h (1 Bft) S-SO 157 7,0 C 4,7 km/h (1 Bft)
30.07.2015 21:14 12,7 C 12,9 C 68 % 1011,1 hPa 0,0 mm 5,4 km/h (1 Bft) S-SO 157 6,9 C 3,4 km/h (1 Bft)
30.07.2015 21:20 12,3 C 12,4 C 69 % 1011,1 hPa 0,0 mm 2,8 km/h (1 Bft) S-SO 157 6,8 C 0,0 km/h (0 Bft)
30.07.2015 21:25 12,1 C 12,1 C 69 % 1011,1 hPa 0,0 mm 1,0 km/h (0 Bft) S-SW 202 6,6 C 4,4 km/h (1 Bft)
30.07.2015 21:30 11,8 C 11,7 C 71 % 1011,1 hPa 0,0 mm 0,3 km/h (0 Bft) S-SO 157 6,7 C 0,0 km/h (0 Bft)
30.07.2015 21:35 11,7 C 11,5 C 71 % 1011,1 hPa 0,0 mm 0,5 km/h (0 Bft) S-SO 157 6,6 C 0,0 km/h (0 Bft)
30.07.2015 21:40 11,6 C 11,4 C 72 % 1011,1 hPa 0,0 mm 0,5 km/h (0 Bft) SO 135 6,7 C 0,0 km/h (0 Bft)
30.07.2015 21:45 11,5 C 11,3 C 73 % 1011,1 hPa 0,0 mm 0,3 km/h (0 Bft) O-SO 112 6,8 C 0,0 km/h (0 Bft)
30.07.2015 21:50 11,4 C 11,2 C 74 % 1011,2 hPa 0,0 mm 0,8 km/h (0 Bft) SO 135 6,9 C 3,4 km/h (1 Bft)
30.07.2015 21:55 11,4 C 11,1 C 75 % 1011,2 hPa 0,0 mm 0,8 km/h (0 Bft) SO 135 7,1 C 0,0 km/h (0 Bft)
30.07.2015 22:00 11,2 C 10,9 C 75 % 1011,2 hPa 0,0 mm 0,5 km/h (0 Bft) S 180 6,9 C 0,0 km/h (0 Bft)
30.07.2015 22:05 11,1 C 10,8 C 75 % 1011,2 hPa 0,0 mm 0,5 km/h (0 Bft) O-SO 112 6,8 C 0,0 km/h (0 Bft)
30.07.2015 22:10 10,9 C 10,6 C 75 % 1011,4 hPa 0,0 mm 0,8 km/h (0 Bft) W-SW 247 6,6 C 0,0 km/h (0 Bft)
30.07.2015 22:15 10,7 C 10,5 C 75 % 1011,4 hPa 0,0 mm 0,5 km/h (0 Bft) S 180 6,5 C 0,0 km/h (0 Bft)
30.07.2015 22:20 10,5 C 10,3 C 75 % 1011,4 hPa 0,0 mm 0,0 km/h (0 Bft) SW 225 6,3 C 0,0 km/h (0 Bft)
30.07.2015 22:25 10,5 C 10,2 C 76 % 1011,4 hPa 0,0 mm 0,0 km/h (0 Bft) SO 135 6,5 C 0,0 km/h (0 Bft)
30.07.2015 22:30 10,3 C 10,0 C 76 % 1011,5 hPa 0,0 mm 0,3 km/h (0 Bft) S 180 6,3 C 0,0 km/h (0 Bft)
30.07.2015 22:35 10,3 C 10,0 C 76 % 1011,5 hPa 0,0 mm 0,3 km/h (0 Bft) W-SW 247 6,3 C 0,0 km/h (0 Bft)
30.07.2015 22:40 10,2 C 9,9 C 76 % 1011,5 hPa 0,0 mm 0,0 km/h (0 Bft) S 180 6,2 C 0,0 km/h (0 Bft)
30.07.2015 22:45 10,2 C 9,9 C 77 % 1011,5 hPa 0,0 mm 0,3 km/h (0 Bft) W-SW 247 6,4 C 0,0 km/h (0 Bft)
30.07.2015 22:50 10,4 C 10,0 C 77 % 1011,5 hPa 0,0 mm 0,8 km/h (0 Bft) S-SO 157 6,5 C 0,0 km/h (0 Bft)
30.07.2015 22:55 10,3 C 10,0 C 77 % 1011,5 hPa 0,0 mm 0,8 km/h (0 Bft) S-SW 202 6,4 C 4,9 km/h (1 Bft)
30.07.2015 23:00 10,4 C 10,2 C 77 % 1011,5 hPa 0,0 mm 2,3 km/h (1 Bft) W-SW 247 6,5 C 3,9 km/h (1 Bft)
30.07.2015 23:05 10,4 C 10,2 C 78 % 1011,5 hPa 0,0 mm 3,6 km/h (1 Bft) S-SO 157 6,7 C 7,3 km/h (2 Bft)
30.07.2015 23:10 10,8 C 10,6 C 78 % 1011,7 hPa 0,0 mm 5,7 km/h (1 Bft) S-SO 157 7,1 C 3,9 km/h (1 Bft)
30.07.2015 23:15 10,8 C 10,7 C 78 % 1011,7 hPa 0,0 mm 5,7 km/h (1 Bft) S-SW 202 7,1 C 7,5 km/h (2 Bft)
30.07.2015 23:20 10,7 C 10,6 C 78 % 1011,7 hPa 0,0 mm 2,8 km/h (1 Bft) S 180 7,0 C 0,0 km/h (0 Bft)
30.07.2015 23:25 10,6 C 10,5 C 78 % 1011,7 hPa 0,0 mm 2,6 km/h (1 Bft) SO 135 6,9 C 5,2 km/h (1 Bft)
30.07.2015 23:30 10,7 C 10,5 C 78 % 1011,8 hPa 0,0 mm 3,1 km/h (1 Bft) SW 225 7,0 C 7,5 km/h (2 Bft)
30.07.2015 23:35 10,7 C 10,6 C 78 % 1011,8 hPa 0,0 mm 3,9 km/h (1 Bft) S-SO 157 7,0 C 5,7 km/h (1 Bft)
30.07.2015 23:40 10,8 C 10,7 C 77 % 1011,8 hPa 0,0 mm 4,1 km/h (1 Bft) S 180 6,9 C 4,7 km/h (1 Bft)
30.07.2015 23:45 10,8 C 10,7 C 77 % 1011,8 hPa 0,0 mm 4,4 km/h (1 Bft) S 180 6,9 C 4,1 km/h (1 Bft)
30.07.2015 23:50 10,8 C 10,7 C 77 % 1012,1 hPa 0,0 mm 3,9 km/h (1 Bft) S 180 6,9 C 5,7 km/h (1 Bft)
30.07.2015 23:55 10,7 C 10,7 C 77 % 1012,1 hPa 0,0 mm 4,9 km/h (1 Bft) S-SO 157 6,8 C 4,7 km/h (1 Bft)
_ Min-Zeit 05:40 05:40 16:10 09:05 - 22:40 - - 05:40 23:20
Minimum _ 7,7 C 7,5 C 57 % 1009,6 hPa - 0,0 km/h (0 Bft) - - 5,8 C 0,0 km/h (0 Bft)
_ Max-Zeit 16:00 15:55 06:25 23:55 23:55 12:55 - - 15:55 16:00
Maximum _ 18,2 C 24,5 C 89 % 1012,1 hPa 0,0 mm 8,5 km/h
W-NW (2 Bft)
- - 10,1 C 20,5 km/h
W (4 Bft)
Durchschnitt _ 12,8 C 14,6 C 73 % 1010,7 hPa #0,0 mm 2,5 km/h (1 Bft) SW - 7,8 C 3,4 km/h (1 Bft)